Regional Weather Roundup
Issued by NWS Jackson, KY

Home | Current Version | Previous Version | Text Only | Print | Product List | Glossary On
Versions: 1 2 3 4 5 6 7 8 9 10 11 12 13 14 15 16 17 18 19 20 21 22 23 24 25 26 27 28 29 30 31 32 33 34 35 36 37 38 39 40 41 42 43 44 45 46 47 48 49 50
000
ASUS43 KJKL 011510
RWRJKL

EAST KENTUCKY HOURLY WEATHER ROUNDUP
NATIONAL WEATHER SERVICE JACKSON KY
1100 AM EDT WED JUL 01 2015

NOTE: "FAIR" INDICATES FEW OR NO CLOUDS BELOW 12,000 FEET WITH
NO SIGNIFICANT WEATHER AND/OR OBSTRUCTIONS TO VISIBILITY.

* THESE REPORTS ARE NOT UNDER NWS QUALITY CONTROL AND MAY NOT
  REPORT WEATHER SUCH AS PRECIPITATION AND FOG.

KYZ079-080-083-085-087-088-110-112-115-119-120-011600
...EASTERN KENTUCKY...

CITY           SKY/WX    TMP DP  RH WIND       PRES   REMARKS
JACKSON        PTSUNNY   74  68  81 MISG      29.99F
LONDON         PTSUNNY   76  67  73 SW7       29.99S
SOMERSET*      CLOUDY    73  72  94 W9        29.98F
MONTICELLO*    PTSUNNY   77  72  84 SW8       30.01S
MIDDLESBORO*   PTSUNNY   77  69  76 S5        30.00F
HARLAN APT*      N/A     73  64  73 W5        30.02S
HAZARD APT*    CLOUDY    75  70  83 SW6       29.99
BLACK MTN*       N/A     66  63  88 S1          N/A
PIKEVILLE APT* CLOUDY    73  68  83 SW3       29.99S
BIG SANDY*     CLOUDY    73  69  87 W3        29.99S
MOREHEAD APT*  CLOUDY    68  66  94 CALM      29.99F FOG
$$

KYZ035-036-041-042-044-050-067-078-099-011600
...CENTRAL KENTUCKY...

CITY           SKY/WX    TMP DP  RH WIND       PRES   REMARKS
MT STERLING*   CLOUDY    72  68  88 W5        29.98F
FLEMING/MASON* SUNNY     72  63  73 CALM      29.98F
DANVILLE*      CLOUDY    77  68  73 SW7       29.98S
RICHMOND*      PTSUNNY   75  68  78 SW6       29.96F
LEXINGTON      CLOUDY    75  69  81 W6        29.96S HAZE
FRANKFORT      CLOUDY    73  67  81 CALM      29.95S HAZE
$$

KYZ091>093-OHZ055-061-077-WVZ005-015-034-035-042-011600
...SOUTHERN OHIO/WEST VIRGINIA...

CITY           SKY/WX    TMP DP  RH WIND       PRES   REMARKS
COVINGTON      PTSUNNY   73  60  63 N3        29.94F
COLUMBUS       MOSUNNY   70  60  70 NW7       29.93R
DAYTON         MOSUNNY   72  58  61 NW7       29.96R
WILMINGTON     MOSUNNY   72  58  61 VRB6      29.95S
HUNTINGTON     CLOUDY    66  64  93 SW5       29.97R
CHARLESTON     CLOUDY    69  64  84 W7        29.97R
PINEVILLE*     CLOUDY    71  67  86 MISG      30.06S
BECKLEY        CLOUDY    68  62  81 W8        30.03R
BLUEFIELD      CLOUDY    71  61  70 W12       30.05S
$$

VAZ002-007-008-TNZ017-027-036-066-071-011600
...SOUTHWEST VIRGINIA/EAST TENNESSEE...

CITY           SKY/WX    TMP DP  RH WIND       PRES   REMARKS
WISE*          MOSUNNY   72  66  83 W8        30.08R
JONESVILLE*      N/A    N/A N/A N/A MISG        N/A
ABINGDON*      CLOUDY    73  67  82 W8        30.07R
BRISTOL        PTSUNNY   74  67  78 W8        30.04R
KNOXVILLE      CLOUDY    75  69  81 S10       30.01S
OAK RIDGE      PTSUNNY   76  70  82 VRB3      30.01F
CROSSVILLE     PTSUNNY   74  67  78 W6        30.05F
NASHVILLE      CLOUDY    76  73  91 SW5       30.00R
$$

...KEY TO REMARKS...
VSB - VISIBILITY IN MILES
WCI - WIND CHILL INDEX
HX  - HEAT INDEX

$$


USA.gov is the U.S. government's official web portal to all federal, state and local government web resources and services.